Location: Newark
(46.7000°N, 60.6000°W)
Time: 13:16:48
(UTC+00:00)

A-11 Canister half - Pass Details

Date: 28 October 2020
Orbit: 1525 x 1684 km, 47.3° (Epoch: 01 December)

Event Time Altitude Azimuth Distance (km) Brightness Sun altitude
Rises 22:18:39 0° 280° (W) 4,726 13.2 -15.3°
Reaches altitude 10° 22:21:44 10° 281° (W) 3,726 12.3 -15.9°
Maximum altitude 22:31:08 87° 195° (SSW) 1,534 8.9 -17.5°
Enters shadow 22:37:26 24° 107° (ESE) 2,747 9.7 -18.5°
Drops below altitude 10° 22:40:28 10° 106° (ESE) 3,694 - -19.1°
Sets 22:43:30 0° 107° (ESE) 4,683 - -19.6°
